Regional Weather Roundup
Issued by NWS Cleveland, OH

Home | Current Version | Previous Version | Graphics & Text | Print | Product List | Glossary On
Versions: 1 2 3 4 5 6 7 8 9 10 11 12 13 14 15 16 17 18 19 20 21 22 23 24 25 26 27 28 29 30 31 32 33 34 35 36 37 38 39 40 41 42 43 44 45 46 47 48 49 50
000
ASUS41 KCLE 032010
RWRCLE
OHIO REGIONAL WEATHER ROUNDUP
NATIONAL WEATHER SERVICE CLEVELAND, OH
400 PM EDT MON AUG 03 2015

NOTE: "FAIR" INDICATES FEW OR NO CLOUDS BELOW 12,000 FEET WITH NO
SIGNIFICANT WEATHER AND/OR OBSTRUCTIONS TO VISIBILITY.

OHZ001>008-015>018-024>027-034-035-043-044-032100-
   NORTHWEST OHIO

CITY           SKY/WX    TMP DP  RH WIND       PRES   REMARKS
DEFIANCE       MOSUNNY   83  60  45 W12G21    29.81F
FINDLAY        MOSUNNY   81  67  62 SW12      29.81F
TOLEDO EXPRESS MOSUNNY   81  62  52 SW13G20   29.79F
TOLEDO EXEC    MOSUNNY   81  60  48 W15       29.80F
LIMA           MOSUNNY   81  65  58 W13       29.83F
$$

OHZ009>014-019>023-028>033-038-089-032100-
   NORTHEAST OHIO

CITY           SKY/WX    TMP DP  RH WIND       PRES   REMARKS
CLE-HOPKINS    PTSUNNY   82  59  45 W10G24    29.82F
CLE-LAKEFRONT  SUNNY     77  67  71 NW12      29.80F
CUY CO. ARPT   MOSUNNY   79  66  65 NW14      29.83
LORAIN-ELYRIA  MOSUNNY   79  62  56 W12       29.82F
ASHTABULA      MOSUNNY   77  63  61 NW8G17    29.83F
AKRON-CANTON   MOSUNNY   82  62  50 W9        29.82F
WOOSTER        PTSUNNY   80  66  62 W10G21    29.84S
MANSFIELD      PTSUNNY   77  66  68 W8G18     29.85F
YOUNGSTOWN     PTSUNNY   83  60  45 W14G21    29.81F
$$

OHZ042-051>053-060>062-070>072-077>081-032100-
  SOUTHWEST OHIO

CITY           SKY/WX    TMP DP  RH WIND       PRES   REMARKS
CINC-COVINGTON MOSUNNY   84  67  56 SW10G18   29.87S
CINC-LUNKEN    SUNNY     85  69  58 W8        29.85F
HAMILTON       SUNNY     85  70  60 VRB7      29.86F
DAYTON         PTSUNNY   79  69  71 SW9       29.86F
WRIGHT-PAT AFB MOSUNNY   82  70  67 SW8       29.84F
DAYTON GENERAL MOSUNNY   83  66  56 W15G21    29.86S
WILMINGTON     SUNNY     83  67  58 SW13G21   29.85F
$$

OHZ036-037-039>041-045>050-054>059-063>069-073>076-082>088-032100-
  CENTRAL AND SOUTHEAST OHIO

CITY           SKY/WX    TMP DP  RH WIND       PRES   REMARKS
COLUMBUS       CLOUDY    83  66  56 W14G22    29.83F
OSU AIRPORT    MOSUNNY   83  68  60 W13G21    29.84S
BOLTON FIELD   PTSUNNY   81  70  69 W13       29.85F
RICKENBACK AFB CLOUDY    82  68  63 W14G21    29.83F
NEWARK         MOSUNNY   86  66  51 SW18G25   29.83F
MARION         MOSUNNY   80  66  62 W12       29.84F
LANCASTER      MOSUNNY   84  68  58 W14G21    29.85F
ZANESVILLE     PTSUNNY   84  62  47 W12G21    29.83F
NEW PHILLY     MOSUNNY   81  67  62 W8        29.82F THUNDER
$$


USA.gov is the U.S. government's official web portal to all federal, state and local government web resources and services.